Content
SEND FEEDBACK

Daily
Averages
Monthly
Summary
United States of America

DONIPHAN, MISSOURI


Home > North America > United States > Missouri
Elevation: 328 feet     Latitude: 36 34N     Longitude: 090 49W

WEATHER
 
SELECT A DAY
Number of Records: 122,590;   Date Range: 6/12/09 - 8/29/14
 
SHARE

PRINT THIS DATA

[ ← Previous Day ]
WEATHER ALMANAC - JANUARY 6, 2013
[ Next Day → ]
[ °C ]   °F
Weather ElementAverageHighLow
Temperature37 °F46.4 °F (1:55 pm)28.4 °F (10:35 pm)
Dewpoint29.7 °F35.6 °F (12:35 am)24.8 °F (5:55 pm)
Humidity77.3 %100 % (1:55 am)49 % (2:35 pm)
Barometer30.29 in30.41 in (10:35 pm)30.20 in (3:15 am)
Wind Speed7.6 mph16.1 mph (10:55 am)
Wind Gust17.3 mph (11:55 am)
Weather ElementAverage
Visibility9.1 mi
Wind DirectionSSW (214 °)

Weather ElementTotal
Precipitation---
Heating Degree Days27.6 (Base 65)
Averaged from 63 records on January 6, 2013
WEATHER CONDITIONS BREAKOUT
WIND DIRECTION BREAKOUT
WEATHER BY HOUR - JANUARY 6, 2013
[ °C ]   °F
Local TimeTemperatureDewpointHumidityBarometerVisibilityWind DirectionWind SpeedGust SpeedPrecipitationEventsConditions
12:35 AM37.4 °F35.6 °F93 %30.23 in10.0 miSW (230°)10.4 mphOvercast
12:55 AM37.4 °F35.6 °F93 %30.23 in7.0 miSW (220°)11.5 mphOvercast
1:15 AM37.4 °F35.6 °F93 %30.22 in7.0 miSW (220°)11.5 mphMostly Cloudy
1:55 AM35.6 °F35.6 °F100 %30.22 in6.0 miSW (220°)8.1 mphClear
2:15 AM35.6 °F33.8 °F93 %30.21 in5.0 miSW (230°)9.2 mphClear
2:55 AM32.0 °F32.0 °F100 %30.21 in3.0 miSW (230°)8.1 mphClear
3:15 AM32.0 °F32.0 °F100 %30.20 in3.0 miSW (220°)6.9 mphClear
3:35 AM33.8 °F33.8 °F100 %30.20 in4.0 miSW (220°)9.2 mphClear
3:55 AM32.0 °F32.0 °F100 %30.20 in3.0 miSW (220°)6.9 mphClear
4:35 AM32.0 °F32.0 °F100 %30.20 in5.0 miSW (220°)6.9 mphClear
4:55 AM32.0 °F32.0 °F100 %30.20 in7.0 miSSW (210°)8.1 mphClear
5:15 AM32.0 °F32.0 °F100 %30.20 in8.0 miSSW (210°)9.2 mphClear
5:35 AM33.8 °F32.0 °F93 %30.20 in10.0 miSW (230°)9.2 mphClear
5:55 AM32.0 °F32.0 °F100 %30.21 in9.0 miWSW (240°)8.1 mphClear
6:15 AM33.8 °F32.0 °F93 %30.21 in10.0 miWSW (240°)11.5 mphClear
6:35 AM33.8 °F32.0 °F93 %30.21 in10.0 miWSW (250°)11.5 mphClear
6:55 AM32.0 °F32.0 °F100 %30.23 in9.0 miWSW (250°)9.2 mphClear
7:15 AM32.0 °F32.0 °F100 %30.23 in8.0 miWSW (250°)8.1 mphClear
7:35 AM32.0 °F32.0 °F100 %30.24 in9.0 miWSW (250°)8.1 mphClear
7:55 AM33.8 °F32.0 °F93 %30.25 in10.0 miWSW (250°)8.1 mphClear
8:35 AM35.6 °F32.0 °F87 %30.26 in10.0 miWest (260°)9.2 mphClear
8:55 AM35.6 °F32.0 °F87 %30.27 in10.0 miWest (260°)8.1 mphClear
9:15 AM37.4 °F32.0 °F81 %30.27 in10.0 miWest (270°)8.1 mphClear
9:35 AM37.4 °F32.0 °F81 %30.27 in10.0 miWest (280°)9.2 mphClear
9:55 AM39.2 °F32.0 °F75 %30.28 in10.0 miNW (310°)9.2 mphClear
10:15 AM39.2 °F32.0 °F75 %30.27 in10.0 miWNW (290°)13.8 mphClear
10:35 AM41.0 °F32.0 °F70 %30.27 in10.0 miWNW (290°)10.4 mphClear
10:55 AM41.0 °F30.2 °F65 %30.28 in10.0 miNW (310°)16.1 mphClear
11:15 AM41.0 °F30.2 °F65 %30.27 in10.0 miNW (310°)11.5 mphClear
11:35 AM42.8 °F30.2 °F61 %30.27 in10.0 miNW (320°)9.2 mph16.1 mphClear
11:55 AM42.8 °F28.4 °F57 %30.27 in10.0 miNW (320°)9.2 mph17.3 mphClear
12:15 PM42.8 °F28.4 °F57 %30.27 in10.0 miNNW (330°)11.5 mphClear
12:35 PM42.8 °F28.4 °F57 %30.27 in10.0 miNorth (350°)8.1 mphClear
12:55 PM44.6 °F28.4 °F53 %30.27 in10.0 miNNW (330°)9.2 mphClear
1:15 PM44.6 °F28.4 °F53 %30.27 in10.0 miNW (320°)8.1 mphClear
1:35 PM44.6 °F28.4 °F53 %30.27 in10.0 miNorth (350°)9.2 mphClear
1:55 PM46.4 °F28.4 °F50 %30.28 in10.0 miNNW (330°)10.4 mphClear
2:15 PM46.4 °F28.4 °F50 %30.29 in10.0 miNNW (330°)15.0 mphClear
2:35 PM44.6 °F26.6 °F49 %30.30 in10.0 miNNW (330°)9.2 mphClear
2:55 PM46.4 °F28.4 °F50 %30.31 in10.0 miNW (320°)11.5 mphClear
3:15 PM46.4 °F28.4 °F50 %30.31 in10.0 miNNW (340°)8.1 mphClear
3:35 PM44.6 °F28.4 °F53 %30.32 in10.0 miNNW (340°)10.4 mphClear
3:55 PM44.6 °F28.4 °F53 %30.33 in10.0 miNorth (350°)9.2 mphClear
4:15 PM44.6 °F26.6 °F49 %30.34 in10.0 miNorth (360°)9.2 mphClear
4:35 PM42.8 °F26.6 °F53 %30.34 in10.0 miNorth (10°)8.1 mphClear
4:55 PM41.0 °F26.6 °F57 %30.35 in10.0 miNorth (10°)6.9 mphClear
5:15 PM41.0 °F26.6 °F57 %30.35 in10.0 miNorth (360°)4.6 mphClear
5:55 PM39.2 °F24.8 °F56 %30.35 in10.0 miNNE (20°)5.8 mphClear
6:15 PM39.2 °F24.8 °F56 %30.36 in10.0 miNNE (20°)5.8 mphClear
6:35 PM37.4 °F26.6 °F65 %30.37 in10.0 miNNE (30°)5.8 mphClear
6:55 PM35.6 °F28.4 °F75 %30.37 in10.0 miNE (50°)3.5 mphClear
7:15 PM32.0 °F26.6 °F80 %30.37 in10.0 miCalmClear
7:35 PM32.0 °F28.4 °F87 %30.38 in10.0 miCalmClear
7:55 PM32.0 °F26.6 °F80 %30.38 in10.0 miCalmClear
8:15 PM32.0 °F26.6 °F80 %30.38 in10.0 miCalmClear
8:35 PM32.0 °F26.6 °F80 %30.38 in10.0 miNNE (30°)3.5 mphClear
8:55 PM32.0 °F26.6 °F80 %30.39 in10.0 miNorth (360°)4.6 mphClear
9:55 PM30.2 °F26.6 °F86 %30.40 in10.0 miCalmClear
10:15 PM30.2 °F28.4 °F93 %30.40 in10.0 miCalmClear
10:35 PM28.4 °F26.6 °F93 %30.41 in9.0 miNorth (360°)4.6 mphClear
10:55 PM28.4 °F26.6 °F93 %30.40 in10.0 miCalmClear
11:15 PM28.4 °F26.6 °F93 %30.41 in9.0 miCalmClear
11:55 PM30.2 °F24.8 °F80 %30.41 in10.0 miNNE (20°)3.5 mphClear
Hourly data recorded from K4M9, located miles away from Doniphan, Missouri







STORIES FROM OUR PARTNERS